Zurück zum Katalog

STARLINK-4495

AktivKommunikationVLEO
NORAD 53552·PAYLOAD·🇺🇸 United States

Gestartet Aug 19, 2022 von Cape Canaveral Space Force Station

Loading…

Nächste Überflüge (nächste 24 Stunden)

TLE

AktuellSource: CelesTrak SupGP

Epoche: Sep 14, 2026, 20:31 UTC

1 53552C 22101AB  26257.85534722 -.00008472  00000+0 -53133-3 0  2571
2 53552  53.1592 294.2964 0001305  84.8337 315.0537 15.08835330    16

Verfolge STARLINK-4495 in Echtzeit mit AllMySat

Download on the App Store